Location: Newark
(45.8378°N, 5.5389°E)
Time: 12:21:57
(UTC+00:00)

YUBILEINY - Pass Details

Date: 20 December 2019
Orbit: 1478 x 1509 km, 82.5° (Epoch: 18 January)

Event Time Altitude Azimuth Distance (km) Brightness Sun altitude
Rises 05:09:52 0° 355° (N) 4,610 ? -20.8°
Reaches altitude 10° 05:13:35 10° 9° (N) 3,628 ? -20.2°
Maximum altitude 05:20:19 24° 61° (ENE) 2,690 ? -19.1°
Drops below altitude 10° 05:27:01 10° 112° (ESE) 3,626 ? -17.9°
Sets 05:30:42 0° 125° (SE) 4,606 ? -17.3°
